Flag for Germany Weather past 2 weeks in Wiesbaden, Hesse, Germany

Now
50 °F

Overcast.


Feels Like: 50 °F
Forecast: 40 / 53 °F
Wind: No wind

Location: Wiesbaden Airport

Current Time: Dec 18, 2014 at 3:39:03 PM

Latest Report: Dec 18, 2014 at 2:58 PM


Visibility: N/A

Pressure: 29.94 "Hg

Humidity: 100%

Dew point: 50 °F

Location of WiesbadenLocation

Historic Weather in Wiesbaden — Graph

°F

Wiesbaden temperature yesterday

Maximum temperature yesterday: 45 °F (at 10:58 PM)
Minimum temperature yesterday: 32 °F (at 5:04 AM)
Average temperature yesterday: 39 °F

Past Weeks' High & Low Weather Summary

 TemperatureHumidityPressure
High50 °F (Dec 12, 8:58 PM)100% (Dec 6, 4:58 AM)30.46 "Hg (Dec 6, 4:58 AM)
Low31 °F (Dec 8, 9:58 PM)70% (Dec 9, 1:00 PM)29.62 "Hg (Dec 12, 6:58 PM)
Average40 °F92%30.04 "Hg
* Reported Dec 3 1:58 PM — Dec 18 1:58 PM, Wiesbaden, Weather by CustomWeather, © 2014

Note: Actual official high and low records may vary slightly from our data, if they occured in-between our weather recording intervals... More about our weather records

Advertising

Wiesbaden weather history for previous 24 hours

 ConditionsComfort  
Time TempWeatherWind HumidityBarometerVisibility
1:58 PM
Dec 18
50 °FFog.No wind100%29.93 "Hg6 mi
12:58 PM48 °FDrizzle. Fog.2 mph100%29.94 "Hg2 mi
12:01 PM48 °FLight rain. Fog.No wind100%29.94 "Hg2 mi
10:58 AM46 °FOvercast.3 mph100%29.96 "HgN/A
9:58 AM46 °FLow clouds.3 mph100%29.94 "HgN/A
8:58 AM46 °FFog.3 mph100%29.95 "Hg3 mi
8:00 AM46 °FFog.5 mph100%29.93 "Hg5 mi
7:59 AM46 °FFog.5 mph100%29.93 "Hg5 mi
6:58 AM46 °FFog.6 mph100%29.95 "Hg3 mi
5:58 AM45 °FLow clouds.7 mph100%29.95 "HgN/A
4:58 AM45 °FLow clouds.6 mph100%29.95 "HgN/A
3:58 AM45 °FLow clouds.6 mph100%29.95 "HgN/A
3:01 AM45 °FMostly cloudy.7 mph100%29.93 "HgN/A
2:58 AM45 °FMostly cloudy.6 mph100%29.95 "HgN/A
1:58 AM44 °FLow clouds.1 mph100%29.94 "HgN/A
12:58 AM45 °FLow clouds.5 mph100%29.92 "HgN/A
11:58 PM
Dec 17
45 °FOvercast.5 mph100%29.92 "HgN/A
10:58 PM45 °FLow clouds.3 mph100%29.90 "HgN/A
9:58 PM45 °FOvercast.7 mph99%29.88 "HgN/A
9:02 PM43 °FMostly cloudy.No wind100%29.84 "HgN/A
7:59 PM43 °FMostly cloudy.5 mph100%29.81 "HgN/A
7:00 PM43 °FLow clouds.6 mph100%29.79 "HgN/A
6:58 PM43 °FLow clouds.6 mph100%29.80 "HgN/A
5:58 PM41 °FLow clouds.7 mph100%29.79 "HgN/A
4:58 PM41 °FLow clouds.8 mph100%29.78 "HgN/A
3:59 PM41 °FLight rain. Mostly cloudy.9 mph93%29.73 "HgN/A
Weather by CustomWeather, © 2014

See weather overviewHow to use our weather pages